Location: Little Baddow
(51.7333°N, 0.5667°E)
Time: 09:56:28
(UTC+00:00)

Cosmos 1190 Rocket - Pass Details

Date: 08 November 2025
Orbit: 752 x 775 km, 74.1° (Epoch: 11 December)

Event Time Altitude Azimuth Distance (km) Brightness Sun altitude
Exits shadow 06:11:30 - 331° (NNW) 3,235 6.8 -8.5°
Reaches altitude 10° 06:13:54 10° 325° (NW) 2,330 6.0 -8.1°
Maximum altitude 06:18:54 44° 255° (WSW) 1,053 4.4 -7.4°
Drops below altitude 10° 06:23:50 10° 184° (S) 2,301 6.7 -6.7°
Sets 06:26:17 0° 178° (S) 3,219 7.5 -6.3°
